Regional Weather Roundup
Issued by NWS Goodland, KS

Current Version | Previous Version | Text Only | Print | Product List | Glossary On
Versions: 1 2 3 4 5 6 7 8 9 10 11 12 13 14 15 16 17 18 19 20 21 22 23 24 25 26 27 28 29 30 31 32 33 34 35 36 37 38 39 40 41 42 43 44 45 46 47 48 49 50
000
ASUS43 KGLD 271259
RWRGLD

GOODLAND FORECAST AREA HOURLY WEATHER ROUNDUP
NATIONAL WEATHER SERVICE GOODLAND KS
600 AM MST TUE JAN 27 2015

...OFFICIAL OBSERVATIONS...

CITY           SKY/WX    TMP DP  RH WIND       PRES   REMARKS
GOODLAND KS    CLEAR     45  28  51 W14       30.09S
HILL CITY KS   CLEAR     30  25  81 SW3       30.07S
IMPERIAL NEB   PTCLDY    36  27  69 W7        30.07R
MCCOOK NEB     PTCLDY    32  27  81 W9        30.06S
AKRON CO       CLEAR     40  28  62 W15       30.11S
BURLINGTON CO  CLEAR     40  27  59 W9        30.12S
LIMON CO       CLEAR     30  23  75 N7        30.17F
$$

...UNOFFICIAL OBSERVATIONS...

CITY           SKY/WX    TMP DP  RH WIND       PRES   REMARKS
COLBY KS       CLEAR     37  32  81 W8        30.09R
GOVE KS          N/A     32  32 100 MISG        N/A
NORTON KS      CLEAR     28  23  80 SW6       30.05R
SHARON SPRINGS   N/A     40  30  66 W9          N/A
KIT CARSON CO    N/A     36  25  65 MISG        N/A
YUMA CO          N/A     38  28  67 SW9         N/A
$$


USA.gov is the U.S. government's official web portal to all federal, state and local government web resources and services.